Tracking 31011 objects as of 12-Jul-2025
HD Live streaming from Space Station
objects crossing your sky now

STARLINK-30568

Track STARLINK-30568 now!
10-day predictions
STARLINK-30568 is classified as:


NORAD ID: 58051
Int'l Code: 2023-158A
Perigee: 565.1 km
Apogee: 567.3 km
Inclination: 43.0 °
Period: 95.8 minutes
Semi major axis: 6937 km
RCS: Unknown
Launch date: October 13, 2023
Source: United States (US)
Launch site: AIR FORCE EASTERN TEST RANGE (AFETR)
Your satellite tracking list
Your tracking list is empty




NASA's NSSDC Master Catalog

Two Line Element Set (TLE):
1 58051U 23158A   25193.21043555 -.00000343  00000-0 -10303-4 0  9996
2 58051  43.0031 257.3228 0001578 271.5330  88.5331 15.02532575 97181
Source of the keplerian elements: AFSPC